Weather History for Newport, VT

Change the Weather History Date:

Friday, October 11, 2013

  Actual Average Record
Temperature  
Mean Temperature 52 °F -  
Max Temperature 70 °F 57 °F 84 °F (1949)
Min Temperature 35 °F 35 °F 19 °F (1993)
Degree Days  
Heating Degree Days 12    
Growing Degree Days 2 (Base 50)    
Moisture  
Dew Point 40 °F    
Average Humidity 67    
Maximum Humidity 89    
Minimum Humidity 24    
Precipitation  
Precipitation 0.00 in - - ()
Sea Level Pressure  
Sea Level Pressure 30.19 in    
Wind  
Wind Speed 1 mph (NNW)    
Max Wind Speed 8 mph    
Max Gust Speed -    
Visibility 9 miles    
Events      
Averages and records for this station are not official NWS values.
T = Trace of Precipitation, MM = Missing Value Source: NWS Daily Summary

Daily Weather History Graph

Daily Weather History Graph

Search for Another Location

Airport:

Trip Planner

Search our weather history database for the weather conditions in past years. The results will help you decide how hot, cold, wet, or windy it might be!

Date:

Astronomy

Oct. 11, 2013 Rise Set
Actual Time 6:59 AM EDT 6:10 PM EDT
Civil Twilight 6:30 AM EDT 6:40 PM EDT
Nautical Twilight 5:56 AM EDT 7:13 PM EDT
Astronomical Twilight 5:22 AM EDT 7:47 PM EDT
Moon 1:47 PM EDT (10/11) 11:45 PM EDT (10/11)
Length of Visible Light 12h 09m
Length of Day
11h 11m
Waxing Crescent, 47% of the Moon is Illuminated
Oct 11
Waxing Crescent
Oct 11
First Quarter
Oct 18
Full
Oct 26
Last Quarter
Nov 3
New

Hourly Weather History & Observations

Time (EDT) Temp. Dew Point Humidity Pressure Visibility Wind Dir Wind Speed Gust Speed Precip Events Conditions
12:15 AM 45.0 °F 39.0 °F 80% 30.20 in 10.0 mi Calm Calm - N/A   Clear
12:35 AM 45.3 °F 40.5 °F 83% 30.20 in 10.0 mi Calm Calm - N/A   Clear
12:55 AM 42.3 °F 37.8 °F 84% 30.21 in 10.0 mi Calm Calm - N/A   Clear
1:15 AM 41.9 °F 37.9 °F 86% 30.21 in 10.0 mi Calm Calm - N/A   Clear
1:35 AM 41.2 °F 37.2 °F 86% 30.21 in 10.0 mi Calm Calm - N/A   Clear
1:55 AM 41.7 °F 37.9 °F 86% 30.20 in 5.0 mi Calm Calm - N/A   Clear
2:15 AM 41.0 °F 37.4 °F 87% 30.20 in 10.0 mi Calm Calm - N/A   Clear
2:55 AM 40.6 °F 37.2 °F 88% 30.20 in 10.0 mi Calm Calm - N/A   Clear
3:15 AM 41.2 °F 37.8 °F 88% 30.20 in 7.0 mi Calm Calm - N/A   Clear
3:35 AM 40.1 °F 36.5 °F 87% 30.20 in 4.0 mi Calm Calm - N/A   Clear
3:55 AM 39.2 °F 35.8 °F 88% 30.19 in 10.0 mi Calm Calm - N/A   Clear
4:15 AM 40.5 °F 37.0 °F 88% 30.20 in 5.0 mi Calm Calm - N/A   Clear
4:35 AM 37.2 °F 33.8 °F 87% 30.20 in 7.0 mi Calm Calm - N/A   Clear
4:55 AM 39.4 °F 36.1 °F 88% 30.20 in 10.0 mi Calm Calm - N/A   Clear
5:15 AM 38.8 °F 35.4 °F 88% 30.20 in 10.0 mi Calm Calm - N/A   Clear
5:35 AM 37.9 °F 34.7 °F 88% 30.20 in 5.0 mi Calm Calm - N/A   Clear
5:55 AM 38.3 °F 34.9 °F 87% 30.20 in 10.0 mi Calm Calm - N/A   Clear
6:15 AM 36.7 °F 33.4 °F 88% 30.20 in 7.0 mi Calm Calm - N/A   Clear
6:35 AM 37.4 °F 34.2 °F 88% 30.21 in 7.0 mi Calm Calm - N/A   Clear
6:55 AM 35.1 °F 32.0 °F 89% 30.20 in 10.0 mi Calm Calm - N/A   Clear
7:15 AM 35.6 °F 32.7 °F 89% 30.20 in 10.0 mi Calm Calm - N/A   Clear
7:35 AM 35.6 °F 32.5 °F 89% 30.21 in 5.0 mi Calm Calm - N/A   Clear
7:55 AM 37.6 °F 34.7 °F 89% 30.21 in 1.5 mi Calm Calm - N/A   Mist
8:15 AM 40.5 °F 37.4 °F 89% 30.21 in 1.2 mi Calm Calm - N/A   Mist
8:35 AM 41.9 °F 38.8 °F 89% 30.22 in 10.0 mi Calm Calm - N/A   Clear
8:55 AM 43.9 °F 40.1 °F 87% 30.21 in 10.0 mi Calm Calm - N/A   Clear
9:15 AM 46.6 °F 40.6 °F 80% 30.21 in 10.0 mi Calm Calm - N/A   Clear
9:35 AM 48.2 °F 41.9 °F 79% 30.21 in 10.0 mi Calm Calm - N/A   Clear
9:55 AM 49.5 °F 41.9 °F 75% 30.21 in 10.0 mi Calm Calm - N/A   Clear
10:15 AM 51.4 °F 42.6 °F 72% 30.21 in 10.0 mi Calm Calm - N/A   Clear
10:35 AM 54.3 °F 43.5 °F 67% 30.20 in 10.0 mi Calm Calm - N/A   Clear
10:55 AM 55.9 °F 43.2 °F 62% 30.20 in 10.0 mi Calm Calm - N/A   Clear
11:15 AM 58.5 °F 43.7 °F 58% 30.19 in 10.0 mi Calm Calm - N/A   Clear
11:35 AM 61.5 °F 43.5 °F 52% 30.19 in 10.0 mi Calm Calm - N/A   Clear
11:55 AM 62.2 °F 42.3 °F 48% 30.19 in 10.0 mi Calm Calm - N/A   Clear
12:15 PM 63.0 °F 43.0 °F 48% 30.18 in 10.0 mi Calm Calm - N/A   Clear
12:35 PM 63.5 °F 42.1 °F 46% 30.18 in 10.0 mi NNE 3.5 mph - N/A   Clear
12:55 PM 65.1 °F 42.1 °F 43% 30.17 in 10.0 mi Calm Calm - N/A   Clear
1:15 PM 64.0 °F 41.2 °F 43% 30.17 in 10.0 mi Calm Calm - N/A   Clear
1:35 PM 66.6 °F 39.7 °F 37% 30.16 in 10.0 mi Calm Calm - N/A   Clear
1:55 PM 68.0 °F 37.0 °F 32% 30.16 in 10.0 mi Calm Calm - N/A   Clear
2:15 PM 69.1 °F 35.2 °F 29% 30.16 in 10.0 mi NNE 5.8 mph - N/A   Clear
2:35 PM 70.2 °F 31.5 °F 24% 30.16 in 10.0 mi North 8.1 mph - N/A   Clear
2:55 PM 70.2 °F 35.6 °F 28% 30.16 in 10.0 mi North 6.9 mph - N/A   Clear
3:15 PM 68.7 °F 38.7 °F 33% 30.16 in 10.0 mi North 5.8 mph - N/A   Clear
3:35 PM 69.6 °F 41.0 °F 35% 30.15 in 10.0 mi North 4.6 mph - N/A   Clear
3:55 PM 70.2 °F 39.6 °F 33% 30.15 in 10.0 mi North 5.8 mph - N/A   Clear
4:15 PM 70.2 °F 39.7 °F 33% 30.16 in 10.0 mi North 6.9 mph - N/A   Clear
4:35 PM 69.8 °F 42.4 °F 37% 30.16 in 10.0 mi North 4.6 mph - N/A   Clear
4:55 PM 68.0 °F 42.3 °F 39% 30.16 in 10.0 mi North 5.8 mph - N/A   Clear
5:15 PM 66.4 °F 43.9 °F 44% 30.16 in 10.0 mi North 3.5 mph - N/A   Clear
5:35 PM 66.7 °F 44.8 °F 45% 30.16 in 10.0 mi Calm Calm - N/A   Clear
5:55 PM 66.2 °F 42.4 °F 42% 30.16 in 10.0 mi Calm Calm - N/A   Clear
6:15 PM 63.7 °F 41.2 °F 44% 30.16 in 10.0 mi NNW 3.5 mph - N/A   Clear
6:35 PM 58.8 °F 41.9 °F 53% 30.16 in 10.0 mi Calm Calm - N/A   Clear
6:55 PM 56.1 °F 41.5 °F 58% 30.17 in 10.0 mi Calm Calm - N/A   Clear
7:15 PM 61.0 °F 40.6 °F 47% 30.17 in 10.0 mi Calm Calm - N/A   Clear
7:35 PM 59.9 °F 42.4 °F 52% 30.17 in 10.0 mi Calm Calm - N/A   Clear
7:55 PM 55.6 °F 43.5 °F 64% 30.17 in 10.0 mi Calm Calm - N/A   Clear
8:15 PM 55.9 °F 43.3 °F 63% 30.18 in 10.0 mi SW 3.5 mph - N/A   Clear
8:35 PM 54.9 °F 43.3 °F 65% 30.18 in 10.0 mi Calm Calm - N/A   Clear
8:55 PM 55.2 °F 43.0 °F 63% 30.18 in 10.0 mi SW 3.5 mph - N/A   Clear
9:15 PM 52.9 °F 43.7 °F 71% 30.19 in 10.0 mi SW 4.6 mph - N/A   Clear
9:35 PM 50.4 °F 43.3 °F 77% 30.20 in 10.0 mi Calm Calm - N/A   Clear
9:55 PM 50.4 °F 42.6 °F 75% 30.20 in 10.0 mi WSW 4.6 mph - N/A   Clear
10:15 PM 49.3 °F 42.4 °F 77% 30.20 in 10.0 mi SW 3.5 mph - N/A   Clear
10:35 PM 46.4 °F 40.8 °F 81% 30.20 in 10.0 mi Calm Calm - N/A   Clear
10:55 PM 49.3 °F 42.4 °F 77% 30.20 in 10.0 mi Calm Calm - N/A   Clear
11:15 PM 48.7 °F 42.3 °F 78% 30.20 in 10.0 mi Calm Calm - N/A   Clear
11:35 PM 47.3 °F 41.5 °F 80% 30.20 in 10.0 mi SW 3.5 mph - N/A   Clear
11:55 PM 45.1 °F 40.1 °F 82% 30.21 in 10.0 mi Calm Calm - N/A   Clear